Location: Gaast
(52.9002°N, 5.8891°E)
Time: 03:08:02
(UTC+00:00)

UNK - Pass Details

Date: 18 November 2025
Orbit: 655 x 672 km, 98.4° (Epoch: 15 December)

Event Time Altitude Azimuth Distance (km) Brightness Sun altitude
Rises 16:58:17 0° 15° (NNE) 3,037 6.8 -11.9°
Reaches altitude 10° 17:00:32 10° 17° (NNE) 2,118 6.0 -12.3°
Maximum altitude 17:05:11 82° 105° (ESE) 687 3.7 -12.9°
Drops below altitude 10° 17:09:47 10° 194° (SSW) 2,100 6.6 -13.6°
Sets 17:12:00 0° 195° (SSW) 3,008 7.5 -13.9°
